Meteopurmerend
purmerend
Purmerend - Baaienwijk



My webcam  My webcam


waarschuwing voor Onweer Meer informatie blitzortung!


Regen radar Meer informatie rain snow radar


Bezoek onze andere website:

CandyAppleRed WebdesignWebdesign Purmerend Candy Apple Red

MeteopurmerendBlog

Template documentation
and downloads



Onweer van: 26-07-2021 13:00 tot: 21:00 waarschuwing voor: Onweer niveau: Geel info button
Enkele onweersbuien, lokaal met hagel en veel neerslag in korte tijd.Kans op blikseminslag, hagel en veel neerslag in korte tijd.Verkeer en buitenactiviteiten kunnen hinder ondervinden.Mijd open water en open gebied, schuil niet onder bomen.Volg weerberichten en waarschuwingen.

15 daagse weersverwachting Sunderland (GB)

  • Overzicht
  • Per uur
  • 15 dagen
  • Extra
  • Vergelijk
  • Kaarten
  • Dagkaart
  • Meer »
  • Info
  • Statistieken
  • Directe link
    Temp 6h Neerslag Wind  
 05:08     21:18    Daglengte: 16:10 Vandaag
19:00
19°
 
4
 05:09     21:16    Daglengte: 16:07 Morgen
01:00
16°
 
2
07:00
15°
 
2
13:00
21°
 
3
19:00
18°
 
3
 05:11     21:14    Daglengte: 16:03 Woensdag 28 Jul
01:00
16°
3.0 mm
2
07:00
15°
7.5 mm
3
13:00
17°
15.8 mm
5
19:00
18°
6.2 mm
4
 05:13     21:12    Daglengte: 15:59 Donderdag 29 Jul
01:00
13°
8.4 mm
4
07:00
13°
 
4
Locatie info
Region: England
Latitude: 54.9024°N
Longitude: -1.3865°E
36 masl
Postcode: SR1 3
Temp/Neerslag /Baro Onweer/Dauwpunt
    Temp Baro 1h Neerslag Dauwpunt Wind UV Bewolking  
 05:08     21:18    Daglengte: 16:10 Vandaag
14:00
20°
1008.5 hPa   14.7°
3
Windvlaag: 2.7 m/s
34%
15:00
20°
1008.2 hPa   14.7°
4
Windvlaag: 3 m/s
19%
16:00
20°
1008.0 hPa
14%
14.8°
4
Windvlaag: 3 m/s
10%
17:00
19°
1007.8 hPa
17%
14.8°
5
Windvlaag: 4.6 m/s
12%
18:00
19°
1007.6 hPa
14%
14.7°
4
Windvlaag: 4.7 m/s
13%
19:00
19°
1007.4 hPa
14%
14.8°
4
Windvlaag: 4.3 m/s
15%
20:00
18°
1007.4 hPa
14%
14.7°
3
Windvlaag: 3.5 m/s
14%
21:00
18°
1007.4 hPa
17%
14.9°
3
Windvlaag: 3.4 m/s
15%
22:00
17°
1007.7 hPa
18%
15.5°
1
Windvlaag: 2.5 m/s
20%
23:00
17°
1007.5 hPa
14%
15.8°
1
Windvlaag: 1.8 m/s
35%
 05:09     21:16    Daglengte: 16:07 Morgen
00:00
17°
1007.3 hPa
14%
15.8°
1
Windvlaag: -0.4 m/s
40%
01:00
16°
1007.2 hPa
14%
15.7°
2
Windvlaag: -0.8 m/s
39%
02:00
16°
1007.0 hPa
14%
15.2°
2
Windvlaag: -0.9 m/s
27%
03:00
16°
1006.8 hPa
14%
14.7°
2
Windvlaag: -0.2 m/s
40%
04:00
15°
1006.5 hPa
15%
13.9°
2
Windvlaag: 0 m/s
9%
05:00
15°
1006.2 hPa
18%
13.3°
2
Windvlaag: 0.1 m/s
10%
06:00
15°
1006.3 hPa
19%
13.1°
2
Windvlaag: 1.1 m/s
9%
07:00
15°
1006.4 hPa
20%
13.6°
2
Windvlaag: 1.3 m/s
23%
08:00
17°
1006.4 hPa
14%
14.0°
2
Windvlaag: 0.7 m/s
43%
09:00
18°
1006.4 hPa
16%
14.1°
2
Windvlaag: -0.5 m/s
46%
10:00
19°
1006.4 hPa
15%
14.2°
1
Windvlaag: -1.6 m/s
46%
11:00
20°
1006.3 hPa
17%
14.0°
1
Windvlaag: -0.6 m/s
48%
12:00
20°
1006.1 hPa
17%
14.2°
2
Windvlaag: 0.8 m/s
51%
13:00
21°
1005.8 hPa
15%
14.6°
3
Windvlaag: 1.2 m/s
58%
14:00
21°
1005.5 hPa
14%
14.9°
3
Windvlaag: 1.5 m/s
60%
15:00
21°
1005.2 hPa
18%
14.9°
4
Windvlaag: 2.3 m/s
59%
16:00
20°
1004.9 hPa
25%
14.9°
4
Windvlaag: 2.1 m/s
55%
17:00
20°
1004.6 hPa
25%
14.8°
4
Windvlaag: 2.4 m/s
71%
18:00
19°
1004.5 hPa
28%
14.1°
3
Windvlaag: 1.3 m/s
78%
19:00
18°
1004.3 hPa
36%
14.8°
3
Windvlaag: 1 m/s
78%
20:00
18°
1004.3 hPa
76%
15.7°
2
Windvlaag: 1.1 m/s
84%
21:00
18°
1004.2 hPa
70%
16.0°
1
Windvlaag: 0.6 m/s
85%
22:00
17°
1004.3 hPa
24%
16.1°
1
Windvlaag: -1 m/s
82%
23:00
17°
1004.0 hPa 1.6 mm
77%
15.5°
2
Windvlaag: -2.9 m/s
85%
 05:11     21:14    Daglengte: 16:03 Woensdag 28 Jul
00:00
16°
1003.8 hPa 1.5 mm
80%
15.3°
2
Windvlaag: -3.3 m/s
86%
01:00
16°
1003.3 hPa
82%
15.0°
2
Windvlaag: -3.3 m/s
32%
02:00
16°
1002.9 hPa 1.6 mm
82%
14.7°
2
Windvlaag: -2.7 m/s
72% warningclass
03:00
16°
1002.4 hPa 1.7 mm
82%
14.2°
2
Windvlaag: -1.3 m/s
72% warningclass
04:00
15°
1002.2 hPa
82%
13.5°
3
Windvlaag: 0.5 m/s
84%
05:00
15°
1002.0 hPa
82%
13.3°
3
Windvlaag: 1 m/s
72%
06:00
15°
1001.8 hPa 1.9 mm
82%
13.3°
3
Windvlaag: 2.2 m/s
84%
07:00
15°
1001.6 hPa 2.2 mm
82%
12.5°
3
Windvlaag: 3.2 m/s
85%
08:00
15°
1001.6 hPa 2.8 mm
82%
11.8°
3
Windvlaag: 3.8 m/s
86%
09:00
16°
1001.6 hPa 2.8 mm
82%
10.4°
4
Windvlaag: 4.1 m/s
84%
10:00
16°
1000.8 hPa 2.4 mm
100%
9.5°
3
Windvlaag: 3.7 m/s
95%
11:00
16°
1000.6 hPa 2.6 mm
100%
8.1°
4
Windvlaag: 1.5 m/s
94%
12:00
16°
1000.4 hPa 2.3 mm
100%
6.5°
5
Windvlaag: 0.1 m/s
95%
13:00
17°
1000.3 hPa 3.0 mm
95%
6.5°
5
Windvlaag: 0.8 m/s
97%
14:00
18°
1000.2 hPa
45%
8.2°
5
Windvlaag: 1.4 m/s
94%
15:00
18°
1000.3 hPa
43%
8.7°
5
Windvlaag: 1.5 m/s
79%
16:00
18°
999.9 hPa
95%
6.8°
5
Windvlaag: 1.6 m/s
22%
17:00
19°
999.7 hPa 3.0 mm
100%
5.7°
4
Windvlaag: 1 m/s
13%
18:00
18°
999.4 hPa
48%
6.6°
4
Windvlaag: -0.1 m/s
29%
19:00
18°
999.4 hPa 3.1 mm
43%
7.8°
4
Windvlaag: 0.4 m/s
42%
20:00
17°
999.6 hPa 3.9 mm
31%
10.5°
5
Windvlaag: 0.7 m/s
56%
21:00
16°
999.7 hPa 4.4 mm
22%
11.2°
4
Windvlaag: 3.4 m/s
32%
22:00
15°
999.8 hPa
21%
10.5°
4
Windvlaag: 3.2 m/s
29%
23:00
14°
999.7 hPa
21%
10.0°
3
Windvlaag: 3.9 m/s
22%
 05:13     21:12    Daglengte: 15:59 Donderdag 29 Jul
00:00
14°
999.5 hPa
21%
8.8°
3
Windvlaag: 4.2 m/s
18%
01:00
13°
999.4 hPa
21%
8.0°
4
Windvlaag: 4.3 m/s
24%
02:00
13°
999.2 hPa
21%
8.9°
4
Windvlaag: 4.1 m/s
56%
03:00
13°
999.0 hPa
21%
9.3°
4
Windvlaag: 3.9 m/s
73%
04:00
13°
999.0 hPa
21%
9.6°
4
Windvlaag: 3.7 m/s
79%
05:00
13°
999.0 hPa
21%
9.9°
4
Windvlaag: 2.8 m/s
88%
06:00
13°
999.0 hPa
21%
9.8°
4
Windvlaag: 4.7 m/s
74%
07:00
13°
999.1 hPa
21%
9.9°
4
Windvlaag: 5.7 m/s
74%
08:00
15°
1000.4 hPa
25%
12.1°
5
Windvlaag: 11.4 m/s
82%
09:00
15°
1000.7 hPa
35%
12.6°
6
Windvlaag: 14.6 m/s
81%
10:00
16°
1001.2 hPa
94%
13.3°
7
Windvlaag: 11.8 m/s
86%
11:00
16°
1001.9 hPa
100%
12.4°
6
Windvlaag: 12.2 m/s
89%
12:00
17°
1002.4 hPa
97%
12.6°
6
Windvlaag: 12.1 m/s
91%
13:00
17°
1002.7 hPa
46%
12.3°
6
Windvlaag: 11.2 m/s
97%
Temp/Neerslag /Baro Onweer/Dauwpunt
    Temp Baro Neerslag Dauwpunt Wind Bewolking  
 05:08     21:18    Daglengte: 16:10 Vandaag
16:00
20°
1008.0 hPa   14.8°
4
10%
19:00
19°
1007.4 hPa   14.8°
4
15%
22:00
17°
1007.7 hPa   15.5°
1
20%
 05:09     21:16    Daglengte: 16:07 Morgen
01:00
16°
1007.2 hPa   15.7°
2
39%
04:00
15°
1006.5 hPa   13.9°
2
9%
07:00
15°
1006.4 hPa   13.6°
2
23%
10:00
19°
1006.4 hPa   14.2°
1
46%
13:00
21°
1005.8 hPa   14.6°
3
58%
16:00
20°
1004.9 hPa   14.9°
4
55%
19:00
18°
1004.3 hPa   14.8°
3
78%
22:00
17°
1004.3 hPa   16.1°
1
82%
 05:11     21:14    Daglengte: 16:03 Woensdag 28 Jul
01:00
16°
1003.3 hPa 3.0 mm 15.0°
2
32%
04:00
15°
1002.2 hPa 3.3 mm 13.5°
3
84%
07:00
15°
1001.6 hPa 4.2 mm 12.5°
3
85%
10:00
16°
1000.8 hPa 8.0 mm 9.5°
3
95%
13:00
17°
1000.3 hPa 7.8 mm 6.5°
5
97%
16:00
18°
999.9 hPa   6.8°
5
22%
19:00
18°
999.4 hPa 6.2 mm 7.8°
4
42%
22:00
15°
999.8 hPa 8.4 mm 10.5°
4
29%
 05:13     21:12    Daglengte: 15:59 Donderdag 29 Jul
01:00
13°
999.4 hPa   8.0°
4
24%
04:00
13°
999.0 hPa   9.6°
4
79%
07:00
13°
999.1 hPa   9.9°
4
74%
10:00
16°
1001.2 hPa   13.3°
7
86%
13:00
17°
1002.7 hPa 17.9 mm 12.3°
6
97%
16:00
18°
1003.6 hPa 15.4 mm 13.4°
3
1%
19:00
16°
1004.5 hPa 17.9 mm 14.3°
2
1%
22:00
15°
1005.4 hPa 18.4 mm 13.4°
4
1%
 05:14     21:11    Daglengte: 15:57 Vrijdag 30 Jul
01:00
14°
1006.4 hPa 18.4 mm 12.0°
5
1%
04:00
13°
1006.0 hPa 18.4 mm 10.0°
5
0%
07:00
14°
1006.3 hPa 18.4 mm 9.4°
4
0%
10:00
17°
1006.5 hPa 18.4 mm 9.6°
3
1%
13:00
18°
1006.0 hPa 18.4 mm 8.8°
2
1%
16:00
17°
1005.9 hPa 18.4 mm 11.2°
3
1%
19:00
16°
1005.5 hPa 18.5 mm 12.3°
3
1%
22:00
16°
1005.4 hPa 18.6 mm 13.5°
2
1%
 05:16     21:09    Daglengte: 15:53 Zaterdag 31 Jul
01:00
15°
1005.3 hPa 18.8 mm 13.6°
4
1%
04:00
14°
1004.8 hPa 19.2 mm 12.5°
5
1%
07:00
14°
1005.1 hPa 20.1 mm 12.5°
5
1%
10:00
14°
1005.5 hPa 20.8 mm 10.7°
4
1%
13:00
14°
1006.4 hPa 20.9 mm 10.3°
4
1%
16:00
13°
1006.9 hPa 21.9 mm 11.2°
5
1%
19:00
13°
1007.6 hPa 23.5 mm 10.7°
3
1%
22:00
13°
1008.3 hPa 23.5 mm 10.7°
3
1%
 05:18     21:07    Daglengte: 15:49 Zondag 01 Aug
01:00
12°
1008.3 hPa 23.6 mm 10.1°
3
1%
04:00
12°
1008.5 hPa 23.9 mm 9.9°
4
1%
07:00
12°
1009.3 hPa 24.6 mm 9.6°
6
1%
10:00
12°
1010.3 hPa 25.0 mm 8.1°
5
1%
13:00
15°
1011.2 hPa 25.2 mm 6.5°
5
1%
16:00
15°
1012.0 hPa 25.3 mm 6.6°
5
1%
19:00
15°
1012.7 hPa 25.4 mm 7.2°
3
1%
22:00
13°
1013.4 hPa 25.4 mm 7.6°
0
1%
 05:20     21:05    Daglengte: 15:45 Maandag 02 Aug
01:00
12°
1013.6 hPa 25.4 mm 8.4°
2
1%
04:00
11°
1013.2 hPa 25.4 mm 7.8°
2
1%
07:00
12°
1013.6 hPa 25.4 mm 7.6°
3
0%
10:00
15°
1013.7 hPa 25.4 mm 7.5°
3
1%
13:00
17°
1013.4 hPa 50.9 mm 6.6°
1
1%
19:00
17°
1012.1 hPa 50.9 mm 8.1°
4
1%
 05:22     21:03    Daglengte: 15:41 Dinsdag 03 Aug
01:00
14°
1011.9 hPa 50.9 mm 10.6°
4
1%
07:00
14°
1009.6 hPa 51.0 mm 11.0°
4
1%
13:00
14°
1006.7 hPa 56.1 mm 13.1°
7
1%
19:00
18°
1003.8 hPa 59.3 mm 12.7°
4
1%
 05:23     21:01    Daglengte: 15:38 Woensdag 04 Aug
01:00
15°
1001.6 hPa 61.6 mm 13.6°
6
1%
07:00
14°
1000.9 hPa 64.1 mm 11.1°
6
1%
13:00
18°
1001.5 hPa 64.6 mm 10.2°
8
0%
19:00
18°
1001.9 hPa 65.1 mm 11.1°
7
0%
 05:25     20:59    Daglengte: 15:34 Donderdag 05 Aug
01:00
14°
1003.3 hPa 65.1 mm 11.2°
3
0%
07:00
14°
1002.8 hPa 65.2 mm 11.2°
2
1%
13:00
17°
1010.7 hPa 0.7 mm 10.2°
1
69%
19:00
17°
1010.0 hPa 0.9 mm 10.6°
1
77%
 05:27     20:57    Daglengte: 15:30 Vrijdag 06 Aug
01:00
15°
1010.2 hPa 0.8 mm 10.6°
2
73%
07:00
14°
1010.0 hPa 0.5 mm 10.3°
3
67%
13:00
17°
1010.7 hPa 0.4 mm 10.5°
3
61%
19:00
17°
1010.9 hPa 0.8 mm 10.4°
3
69%
 05:29     20:55    Daglengte: 15:26 Zaterdag 07 Aug
01:00
14°
1011.5 hPa 0.3 mm 10.2°
3
57%
07:00
14°
1011.0 hPa 0.5 mm 10.3°
3
65%
13:00
17°
1011.4 hPa 0.4 mm 10.1°
2
70%
19:00
17°
1011.0 hPa 0.5 mm 10.4°
2
78%
 05:31     20:53    Daglengte: 15:22 Zondag 08 Aug
01:00
15°
1011.4 hPa 0.7 mm 10.2°
3
67%
07:00
14°
1011.0 hPa 0.5 mm 9.8°
3
62%
13:00
18°
1011.2 hPa 0.7 mm 10.0°
2
54%
19:00
17°
1011.2 hPa 1.2 mm 10.4°
2
60%
 05:32     20:51    Daglengte: 15:19 Maandag 09 Aug
01:00
15°
1012.2 hPa 0.2 mm 10.2°
4
52%
07:00
14°
1012.2 hPa 0.3 mm 9.9°
4
57%
13:00
18°
1012.9 hPa 0.6 mm 10.5°
2
56%
19:00
18°
1013.3 hPa 1.1 mm 10.8°
2
63%
 05:34     20:48    Daglengte: 15:14 Dinsdag 10 Aug
01:00
15°
1014.5 hPa 0.2 mm 10.3°
3
57%
07:00
14°
1014.6 hPa 0.3 mm 10.0°
2
58%
13:00
18°
1015.0 hPa 0.5 mm 10.2°
2
61%
  CAPE Lifted Index Hail Supercell Tornado SRH 3km CL BTM PRES CL TOP PRES Swiss DWD icon SMHI TS
 05:08     21:18    Daglengte: 16:10 Vandaag
14:00 170 J/kg -1.0 K 0 % 0 % 0 % 0 m²/s² 0 0 2.57 3
15:00 239 J/kg -1.8 K 0 % 0 % 0 % 0 m²/s² 0 0 1.23 3
16:00 258 J/kg -2.1 K 0 % 0 % 0 % 0 m²/s² 0 0 -1.05 2
17:00 259 J/kg -2.2 K 0 % 0 % 0 % 0 m²/s² 0 0 -1.63 2
18:00 301 J/kg -2.4 K 0 % 0 % 0 % 0 m²/s² 0 0 -0.66 2
19:00 360 J/kg -2.7 K 0 % 0 % 0 % 0 m²/s² 0 0 -1.47 2
20:00 454 J/kg -2.7 K 0 % 0 % 0 % 0 m²/s² 0 0 -2.52 2
21:00 335 J/kg -2.8 K 0 % 0 % 0 % 0 m²/s² 0 0 -1.72 2
22:00 216 J/kg -2.6 K 0 % 0 % 0 % 0 m²/s² 0 0 -0.86 2
23:00 373 J/kg -2.7 K 0 % 0 % 0 % 0 m²/s² 0 0 -0.96 3
 05:09     21:16    Daglengte: 16:07 Morgen
00:00 404 J/kg -2.4 K 0 % 0 % 0 % 0 m²/s² 0 0 0.09 3
01:00 128 J/kg -1.4 K 0 % 0 % 0 % 0 m²/s² 0 0 1.63 3
02:00 0 J/kg -1.2 K 0 % 0 % 0 % 0 m²/s² 0 0 1.74 3
03:00 0 J/kg -1.4 K 0 % 0 % 0 % 0 m²/s² 0 0 1.69 3
04:00 0 J/kg -2.1 K 0 % 0 % 0 % 0 m²/s² 0 0 1.08 45
05:00 0 J/kg -2.0 K 0 % 0 % 0 % 0 m²/s² 0 0 1.09 2
06:00 0 J/kg -2.5 K 0 % 0 % 0 % 0 m²/s² 0 0 0.5 1
07:00 0 J/kg -2.2 K 0 % 0 % 0 % 0 m²/s² 0 0 0.8 3
08:00 0 J/kg -1.9 K 0 % 0 % 0 % 0 m²/s² 0 0 1.04 3
09:00 243 J/kg -1.8 K 0 % 0 % 0 % 0 m²/s² 0 0 1.14 3
10:00 388 J/kg -2.3 K 0 % 0 % 0 % 0 m²/s² 0 0 0.61 3
11:00 466 J/kg -2.6 K 0 % 0 % 0 % 0 m²/s² 0 0 0.4 3
12:00 472 J/kg -2.5 K 0 % 0 % 0 % 0 m²/s² 0 0 0.5 3
13:00 417 J/kg -2.4 K 0 % 0 % 0 % 0 m²/s² 0 0 0.69 3
14:00 451 J/kg -2.9 K 0 % 0 % 0 % 0 m²/s² 0 0 0.19 3
15:00 421 J/kg -2.8 K 0 % 0 % 0 % 0 m²/s² 0 0 0.05 3
16:00 466 J/kg -2.9 K 0 % 0 % 0 % 0 m²/s² 0 0 -0.2 3
17:00 298 J/kg -2.8 K 0 % 0 % 0 % 0 m²/s² 0 0 -0.94 3
18:00 184 J/kg -2.5 K 0 % 0 % 0 % 0 m²/s² 0 0 -1 3
19:00 92 J/kg -2.3 K 0 % 0 % 0 % 0 m²/s² 0 0 -1.43 3
20:00 53 J/kg -2.2 K 0 % 0 % 0 % 0 m²/s² 0 0 -1.93 3
21:00 82 J/kg -2.6 K 0 % 0 % 0 % 0 m²/s² 0 0 -2.48 3
22:00 142 J/kg -1.2 K 0 % 0 % 0 % 0 m²/s² 0 0 -0.87 3
23:00 124 J/kg -1.1 K 0 % 0 % 0 % 0 m²/s² 0 0 -0.53 80
 05:11     21:14    Daglengte: 16:03 Woensdag 28 Jul
00:00 72 J/kg -1.0 K 0 % 0 % 0 % 0 m²/s² 0 0 0.02 80
01:00 50 J/kg -0.8 K 0 % 0 % 0 % 0 m²/s² 0 0 0.49 3
02:00 79 J/kg -1.5 K 0 % 0 % 0 % 0 m²/s² 0 0 -0.39 95
03:00 165 J/kg -0.7 K 0 % 0 % 0 % 0 m²/s² 0 0 -0.19 95
04:00 29 J/kg 0.2 K 0 % 0 % 0 % 0 m²/s² 0 0 0.29 80
05:00 0 J/kg 0.9 K 0 % 0 % 0 % 0 m²/s² 0 0 0.99 80
06:00 0 J/kg 0.9 K 0 % 0 % 0 % 0 m²/s² 0 0 1.23 80
07:00 0 J/kg 0.9 K 0 % 0 % 0 % 0 m²/s² 0 0 1.59 61
08:00 0 J/kg 1.2 K 0 % 0 % 0 % 0 m²/s² 0 0 1.74 61
09:00 3 J/kg 2.3 K 0 % 0 % 0 % 0 m²/s² 0 0 2.6 61
10:00 4 J/kg 2.2 K 0 % 0 % 0 % 0 m²/s² 0 0 2.92 61
11:00 0 J/kg 1.9 K 0 % 0 % 0 % 0 m²/s² 0 0 3.55 61
12:00 2 J/kg 1.3 K 0 % 0 % 0 % 0 m²/s² 0 0 2.95 61
13:00 4 J/kg 1.1 K 0 % 0 % 0 % 0 m²/s² 0 0 2.36 61
14:00 74 J/kg -0.1 K 0 % 0 % 0 % 0 m²/s² 0 0 1.79 3
15:00 7 J/kg 0.4 K 0 % 0 % 0 % 0 m²/s² 0 0 2.38 3
16:00 43 J/kg 0.1 K 0 % 0 % 0 % 0 m²/s² 0 0 2.71 2
17:00 29 J/kg 0.0 K 0 % 0 % 0 % 0 m²/s² 0 0 3.51 2
18:00 178 J/kg -0.6 K 0 % 0 % 0 % 0 m²/s² 0 0 2.73 2
19:00 294 J/kg -0.9 K 0 % 0 % 0 % 0 m²/s² 0 0 1.02 2
20:00 370 J/kg -1.5 K 0 % 0 % 0 % 0 m²/s² 0 0 -0.51 1
21:00 244 J/kg -1.1 K 0 % 0 % 0 % 0 m²/s² 0 0 -0.98 1
22:00 205 J/kg -0.7 K 0 % 0 % 0 % 0 m²/s² 0 0 -0.55 0
23:00 162 J/kg -0.3 K 0 % 0 % 0 % 0 m²/s² 0 0 0.03 0
 05:13     21:12    Daglengte: 15:59 Donderdag 29 Jul
00:00 80 J/kg 0.6 K 0 % 0 % 0 % 0 m²/s² 0 0 0.96 0
01:00 20 J/kg 1.5 K 0 % 0 % 0 % 0 m²/s² 0 0 1.95 1
02:00 3 J/kg 1.3 K 0 % 0 % 0 % 0 m²/s² 0 0 2.11 1
03:00 0 J/kg 1.1 K 0 % 0 % 0 % 0 m²/s² 0 0 2.06 3
04:00 0 J/kg 1.2 K 0 % 0 % 0 % 0 m²/s² 0 0 1.62 3
05:00 0 J/kg 1.8 K 0 % 0 % 0 % 0 m²/s² 0 0 2.67 3
06:00 0 J/kg 2.4 K 0 % 0 % 0 % 0 m²/s² 0 0 2.85 2
07:00 0 J/kg 3.1 K 0 % 0 % 0 % 0 m²/s² 0 0 3.55 1
08:00 15 J/kg 2.2 K 0 % 0 % 0 % 0 m²/s² 0 0 2.32 3
09:00 21 J/kg 1.5 K 0 % 0 % 0 % 0 m²/s² 0 0 1.68 3
10:00 41 J/kg 1.4 K 0 % 0 % 0 % 0 m²/s² 0 0 1.52 3
11:00 15 J/kg 1.5 K 0 % 0 % 0 % 0 m²/s² 0 0 1.71 61
12:00 10 J/kg 1.7 K 0 % 0 % 0 % 0 m²/s² 0 0 1.91 3
13:00 33 J/kg 0.8 K 0 % 0 % 0 % 0 m²/s² 0 0 1.04 3
Temp Baro Wind Neerslag
  EWN Forecast EWN WRFDA DWD ICON FMI HIRLAM MET Norway GFS
 05:08     21:18    Daglengte: 16:10 Vandaag
16:00 19.9° 1008.0 hPa 4.0 m/s 0.0 mm 21.6° 1006.9 hPa 3.3 m/s 0.0 mm 19.7° 1008.5 hPa 3.8 m/s -2.0 mm 19.8° 1007.8 hPa 4.0 m/s 0.0 mm 19.9° 1007.9 hPa 3.5 m/s
19:00 18.5° 1007.4 hPa 4.2 m/s 0.0 mm 20.4° 1006.1 hPa 2.6 m/s 0.2 mm 18.7° 1007.1 hPa 3.4 m/s 0.0 mm 18.3° 1007.6 hPa 4.5 m/s 0.0 mm 18.7° 1007.4 hPa 3.8 m/s
22:00 17.1° 1007.7 hPa 1.3 m/s 0.0 mm 18.1° 1006.2 hPa 1.4 m/s 4.0 mm 17.2° 1008.1 hPa 0.5 m/s 0.0 mm 16.8° 1007.8 hPa 1.4 m/s 0.0 mm 16.9° 1007.5 hPa 2.2 m/s
 05:09     21:16    Daglengte: 16:07 Morgen
01:00 16.4° 1007.2 hPa 1.6 m/s 0.0 mm 16.9° 1006.0 hPa 2.6 m/s 4.3 mm 16.5° 1007.4 hPa 0.4 m/s 0.0 mm 15.2° 1007.3 hPa 1.7 m/s 0.0 mm 16.0° 1007.4 hPa 1.0 m/s
04:00 15.0° 1006.5 hPa 1.9 m/s 0.0 mm 15.3° 1005.1 hPa 3.0 m/s 4.3 mm 14.9° 1006.6 hPa 1.0 m/s 0.0 mm 14.7° 1006.6 hPa 1.7 m/s 0.0 mm 15.2° 1006.5 hPa 1.7 m/s
07:00 15.4° 1006.4 hPa 1.6 m/s 0.0 mm 16.0° 1005.0 hPa 2.6 m/s 4.3 mm 15.8° 1006.7 hPa 1.2 m/s 0.0 mm 15.0° 1006.5 hPa 1.3 m/s 0.0 mm 16.0° 1006.5 hPa 1.6 m/s
10:00 19.0° 1006.4 hPa 1.0 m/s 0.0 mm 20.0° 1004.9 hPa 0.8 m/s 4.3 mm 18.1° 1006.8 hPa 1.0 m/s 0.0 mm 18.9° 1006.6 hPa 1.3 m/s 0.0 mm 18.6° 1006.3 hPa 1.7 m/s
13:00 20.7° 1005.8 hPa 2.7 m/s 0.0 mm 21.1° 1004.5 hPa 3.8 m/s 4.3 mm 19.7° 1006.2 hPa 2.1 m/s 0.0 mm 20.6° 1005.9 hPa 2.6 m/s 0.0 mm 19.4° 1005.8 hPa 2.4 m/s
16:00 20.2° 1004.9 hPa 3.8 m/s 0.0 mm 21.3° 1003.8 hPa 1.4 m/s 4.3 mm 19.3° 1005.2 hPa 3.9 m/s 0.0 mm 20.1° 1005.0 hPa 4.7 m/s 0.0 mm 19.5° 1004.8 hPa 2.2 m/s
19:00 18.4° 1004.3 hPa 2.7 m/s 0.0 mm 16.8° 1003.8 hPa 2.1 m/s 6.8 mm 18.6° 1004.3 hPa 2.4 m/s 0.0 mm 19.6° 1004.6 hPa 3.5 m/s 0.0 mm 17.8° 1003.9 hPa 0.8 m/s
22:00 17.0° 1004.3 hPa 1.1 m/s 0.0 mm 16.5° 1003.8 hPa 2.2 m/s 14.0 mm 17.3° 1004.2 hPa 0.7 m/s 0.1 mm 17.2° 1005.2 hPa 0.9 m/s 0.0 mm 16.7° 1004.2 hPa 2.7 m/s
 05:11     21:14    Daglengte: 16:03 Woensdag 28 Jul
01:00 16.2° 1003.3 hPa 2.4 m/s 3.0 mm 15.3° 1002.4 hPa 0.7 m/s 18.3 mm 16.4° 1002.8 hPa 0.8 m/s 0.7 mm 16.6° 1005.0 hPa 4.3 m/s 0.0 mm 16.0° 1002.7 hPa 1.9 m/s
04:00 15.2° 1002.2 hPa 2.7 m/s 3.3 mm 15.7° 1001.6 hPa 3.6 m/s 18.7 mm 15.9° 1001.8 hPa 0.7 m/s 2.2 mm 14.9° 1005.2 hPa 5.9 m/s 0.0 mm 15.6° 1001.4 hPa 1.5 m/s
07:00 15.1° 1001.6 hPa 2.7 m/s 4.2 mm 14.8° 1000.9 hPa 5.1 m/s 25.0 mm 15.2° 1001.0 hPa 1.3 m/s 1.3 mm 14.7° 1006.0 hPa 6.5 m/s 0.0 mm 15.3° 1000.7 hPa 2.5 m/s
10:00 16.0° 1000.8 hPa 3.0 m/s 8.0 mm 17.1° 1000.9 hPa 4.2 m/s 25.9 mm 15.8° 1001.0 hPa 2.7 m/s 3.7 mm 14.4° 1000.3 hPa 4.0 m/s
13:00 17.0° 1000.3 hPa 4.9 m/s 7.8 mm 19.0° 1000.3 hPa 4.3 m/s 25.9 mm 17.1° 1000.4 hPa 4.9 m/s 0.7 mm 16.0° 1000.6 hPa 4.6 m/s
16:00 18.3° 999.9 hPa 4.6 m/s 0.0 mm 19.8° 999.1 hPa 3.6 m/s 26.2 mm 18.4° 1000.7 hPa 5.2 m/s 0.1 mm 18.1° 999.3 hPa 4.1 m/s
19:00 17.7° 999.4 hPa 4.3 m/s 6.2 mm 19.0° 998.7 hPa 4.1 m/s 26.6 mm 17.7° 1000.4 hPa 5.8 m/s 0.1 mm 16.6° 998.4 hPa 4.3 m/s
22:00 14.8° 999.8 hPa 3.6 m/s 8.4 mm 15.2° 999.2 hPa 3.6 m/s 35.6 mm 14.9° 1000.8 hPa 4.1 m/s 0.0 mm 13.9° 998.5 hPa 4.7 m/s
 05:13     21:12    Daglengte: 15:59 Donderdag 29 Jul
01:00 13.3° 999.4 hPa 3.6 m/s 0.0 mm 14.4° 998.2 hPa 3.2 m/s 40.6 mm 13.2° 1000.7 hPa 3.8 m/s 0.0 mm 12.8° 998.5 hPa 5.1 m/s
04:00 12.8° 999.0 hPa 4.1 m/s 0.0 mm 13.2° 997.5 hPa 3.9 m/s 40.7 mm 12.9° 1000.8 hPa 4.0 m/s 0.0 mm 12.8° 998.4 hPa 6.4 m/s
07:00 13.3° 999.1 hPa 4.5 m/s 0.0 mm 13.4° 997.2 hPa 6.8 m/s 40.8 mm 13.5° 1000.9 hPa 4.2 m/s 0.0 mm 13.8° 998.3 hPa 5.9 m/s
10:00 15.6° 1001.2 hPa 6.6 m/s 0.0 mm 14.7° 998.0 hPa 6.9 m/s 46.5 mm 15.9° 1002.0 hPa 6.5 m/s 0.0 mm 14.6° 1000.1 hPa 7.3 m/s
13:00 17.1° 1002.7 hPa 5.6 m/s 17.9 mm 16.6° 1000.4 hPa 6.3 m/s 53.4 mm 17.3° 1003.3 hPa 5.4 m/s 0.1 mm 17.7° 1002.0 hPa 6.7 m/s
16:00 17.9° 1003.6 hPa 2.9 m/s 15.4 mm 17.9° 1003.6 hPa 2.9 m/s 15.4 mm
19:00 16.5° 1004.5 hPa 2.0 m/s 17.9 mm 16.5° 1004.5 hPa 2.0 m/s 17.9 mm
22:00 15.4° 1005.4 hPa 3.6 m/s 18.4 mm 15.4° 1005.4 hPa 3.6 m/s 18.4 mm
 05:14     21:11    Daglengte: 15:57 Vrijdag 30 Jul
01:00 14.3° 1006.4 hPa 5.1 m/s 18.4 mm 14.3° 1006.3 hPa 5.1 m/s 18.4 mm
04:00 13.0° 1006.0 hPa 4.7 m/s 18.4 mm 13.0° 1006.0 hPa 4.7 m/s 18.4 mm
07:00 13.7° 1006.3 hPa 4.2 m/s 18.4 mm 13.7° 1006.3 hPa 4.2 m/s 18.4 mm
10:00 17.1° 1006.5 hPa 3.4 m/s 18.4 mm 17.1° 1006.5 hPa 3.4 m/s 18.4 mm
13:00 18.2° 1006.0 hPa 2.5 m/s 18.4 mm 18.2° 1006.0 hPa 2.5 m/s 18.4 mm
16:00 17.3° 1005.9 hPa 3.1 m/s 18.4 mm 17.3° 1005.9 hPa 3.1 m/s 18.4 mm
19:00 16.5° 1005.5 hPa 2.6 m/s 18.5 mm 16.5° 1005.5 hPa 2.6 m/s 18.5 mm
22:00 15.9° 1005.4 hPa 2.3 m/s 18.6 mm 15.9° 1005.4 hPa 2.3 m/s 18.6 mm
 05:16     21:09    Daglengte: 15:53 Zaterdag 31 Jul
01:00 15.2° 1005.3 hPa 3.8 m/s 18.8 mm 15.2° 1005.3 hPa 3.8 m/s 18.8 mm
04:00 14.3° 1004.8 hPa 5.3 m/s 19.2 mm 14.3° 1004.8 hPa 5.3 m/s 19.2 mm
07:00 13.6° 1005.1 hPa 4.7 m/s 20.1 mm 13.6° 1005.1 hPa 4.7 m/s 20.1 mm
10:00 14.1° 1005.5 hPa 4.2 m/s 20.8 mm 14.1° 1005.5 hPa 4.2 m/s 20.8 mm
13:00 14.0° 1006.4 hPa 4.5 m/s 20.9 mm 14.0° 1006.4 hPa 4.5 m/s 20.9 mm
16:00 12.8° 1006.9 hPa 4.8 m/s 21.9 mm 12.8° 1006.9 hPa 4.8 m/s 21.9 mm
19:00 12.8° 1007.6 hPa 2.9 m/s 23.5 mm 12.8° 1007.6 hPa 2.9 m/s 23.5 mm
22:00 12.8° 1008.3 hPa 2.9 m/s 23.5 mm 12.8° 1008.3 hPa 2.9 m/s 23.5 mm
 05:18     21:07    Daglengte: 15:49 Zondag 01 Aug
01:00 12.0° 1008.3 hPa 3.3 m/s 23.6 mm 12.0° 1008.3 hPa 3.3 m/s 23.6 mm
04:00 12.0° 1008.5 hPa 4.3 m/s 23.9 mm 12.0° 1008.5 hPa 4.3 m/s 23.9 mm
07:00 12.1° 1009.3 hPa 5.7 m/s 24.6 mm 12.1° 1009.3 hPa 5.7 m/s 24.6 mm
10:00 12.4° 1010.3 hPa 4.7 m/s 25.0 mm 12.4° 1010.3 hPa 4.7 m/s 25.0 mm
13:00 14.6° 1011.2 hPa 5.4 m/s 25.2 mm 14.6° 1011.2 hPa 5.4 m/s 25.2 mm
16:00 14.8° 1012.0 hPa 4.8 m/s 25.3 mm 14.8° 1012.0 hPa 4.8 m/s 25.3 mm
19:00 14.6° 1012.7 hPa 2.7 m/s 25.4 mm 14.6° 1012.7 hPa 2.7 m/s 25.4 mm
22:00 13.5° 1013.4 hPa 0.3 m/s 25.4 mm 13.5° 1013.4 hPa 0.3 m/s 25.4 mm
 05:20     21:05    Daglengte: 15:45 Maandag 02 Aug
01:00 11.9° 1013.6 hPa 2.2 m/s 25.4 mm 11.9° 1013.6 hPa 2.2 m/s 25.4 mm
04:00 11.1° 1013.2 hPa 2.1 m/s 25.4 mm 11.1° 1013.2 hPa 2.1 m/s 25.4 mm
07:00 11.7° 1013.6 hPa 2.6 m/s 25.4 mm 11.7° 1013.6 hPa 2.6 m/s 25.4 mm
10:00 14.7° 1013.7 hPa 2.7 m/s 25.4 mm 14.7° 1013.7 hPa 2.7 m/s 25.4 mm
13:00 17.1° 1013.4 hPa 0.9 m/s 25.4 mm 17.1° 1013.4 hPa 0.9 m/s 25.4 mm
19:00 17.5° 1012.1 hPa 4.5 m/s 25.4 mm 17.5° 1012.1 hPa 4.5 m/s 25.4 mm
 05:22     21:03    Daglengte: 15:41 Dinsdag 03 Aug
01:00 14.2° 1011.9 hPa 3.6 m/s 25.4 mm 14.2° 1011.9 hPa 3.6 m/s 25.4 mm
07:00 14.0° 1009.6 hPa 4.2 m/s 25.5 mm 14.0° 1009.6 hPa 4.2 m/s 25.5 mm
13:00 14.4° 1006.7 hPa 6.9 m/s 29.2 mm 14.4° 1006.7 hPa 6.9 m/s 29.2 mm
19:00 17.9° 1003.8 hPa 4.2 m/s 29.7 mm 17.9° 1003.8 hPa 4.2 m/s 29.7 mm
 05:23     21:01    Daglengte: 15:38 Woensdag 04 Aug
01:00 15.1° 1001.6 hPa 5.9 m/s 31.8 mm 15.1° 1001.6 hPa 5.9 m/s 31.8 mm
07:00 14.3° 1000.9 hPa 6.3 m/s 32.2 mm 14.3° 1000.9 hPa 6.3 m/s 32.2 mm
13:00 18.0° 1001.5 hPa 7.6 m/s 32.4 mm 18.0° 1001.5 hPa 7.6 m/s 32.4 mm
19:00 18.2° 1001.9 hPa 6.9 m/s 32.6 mm 18.2° 1001.9 hPa 6.9 m/s 32.6 mm
 05:25     20:59    Daglengte: 15:34 Donderdag 05 Aug
01:00 14.2° 1003.3 hPa 3.1 m/s 32.6 mm 14.2° 1003.3 hPa 3.1 m/s 32.6 mm
07:00 13.8° 1002.8 hPa 1.7 m/s 32.6 mm 13.8° 1002.8 hPa 1.7 m/s 32.6 mm
13:00 17.4° 1010.7 hPa 0.9 m/s 0.7 mm
19:00 16.9° 1010.0 hPa 1.2 m/s 0.9 mm
 05:27     20:57    Daglengte: 15:30 Vrijdag 06 Aug
01:00 14.7° 1010.2 hPa 2.2 m/s 0.8 mm
07:00 14.0° 1010.0 hPa 2.7 m/s 0.5 mm
13:00 17.0° 1010.7 hPa 2.6 m/s 0.4 mm
19:00 17.1° 1010.9 hPa 2.8 m/s 0.8 mm
 05:29     20:55    Daglengte: 15:26 Zaterdag 07 Aug
01:00 14.5° 1011.5 hPa 3.1 m/s 0.3 mm
07:00 14.0° 1011.0 hPa 3.2 m/s 0.5 mm
13:00 17.3° 1011.4 hPa 2.4 m/s 0.4 mm
19:00 16.9° 1011.0 hPa 2.3 m/s 0.5 mm
 05:31     20:53    Daglengte: 15:22 Zondag 08 Aug
01:00 14.5° 1011.4 hPa 2.9 m/s 0.7 mm
07:00 13.9° 1011.0 hPa 2.7 m/s 0.5 mm
13:00 17.5° 1011.2 hPa 1.8 m/s 0.7 mm
19:00 16.9° 1011.2 hPa 2.0 m/s 1.2 mm
 05:32     20:51    Daglengte: 15:19 Maandag 09 Aug
01:00 14.5° 1012.2 hPa 3.6 m/s 0.2 mm
07:00 14.0° 1012.2 hPa 3.6 m/s 0.3 mm
13:00 18.1° 1012.9 hPa 2.4 m/s 0.6 mm
19:00 17.6° 1013.3 hPa 1.9 m/s 1.1 mm
 05:34     20:48    Daglengte: 15:14 Dinsdag 10 Aug
01:00 15.1° 1014.5 hPa 2.8 m/s 0.2 mm
07:00 14.4° 1014.6 hPa 2.3 m/s 0.3 mm
13:00 18.3° 1015.0 hPa 1.7 m/s 0.5 mm
FMI Hirlam - 7.5 km EWN WRFDA - 12 km DWD ICON - 7 km GFS - 25 km Basiskaart






























































Updatetijd (Europe/Amsterdam) Resolutie Lengte Stap
FMI Hirlam 14:00, 20:00, 02:00, 08:00 7.5 km 49h 1h
EWN WRFDA 10:30, 16:30, 22:30, 04:30 12 km 73h 1h
DWD ICON 11:45, 17:45, 23:45, 05:45 7 km 75h 1h
GFS 14:15, 20:15, 02:15, 08:15 25 km 237h 3h
30+ mm
25-30 mm
20-25 mm
15-20 mm
10-15 mm
6-10 mm
4-6 mm
2-4 mm
1-2 mm
0.5-1 mm
0.2-0.5 mm
0.1-0.2 mm
30+ mm
25-30 mm
20-25 mm
15-20 mm
10-15 mm
6-10 mm
4-6 mm
2-4 mm
1-2 mm
0.5-1 mm
0.2-0.5 mm
0.1-0.2 mm
Sneeuwval
Natte sneeuw
Hagel
Vorst
30+ mm
25-30 mm
20-25 mm
15-20 mm
10-15 mm
6-10 mm
4-6 mm
2-4 mm
1-2 mm
0.5-1 mm
0.2-0.5 mm
0.1-0.2 mm
Sneeuwval
Natte sneeuw
Hagel
Vorst
Onweer
50 mm
40 mm
30 mm
26 mm
22 mm
18 mm
14 mm
10 mm
9 mm
8 mm
7 mm
6 mm
5 mm
4.5 mm
4 mm
3.5 mm
3 mm
2.5 mm
2 mm
1.5 mm
1 mm
0.8 mm
0.6 mm
0.4 mm
0.2 mm
0.05 mm
35°
30°
25°
20°
15°
10°
-5°
-10°
-15°
-20°
-25°
-30°
-35°
33> m/s
29 m/s
25 m/s
21 m/s
17 m/s
14 m/s
11 m/s
8 m/s
5 m/s
3 m/s
0 m/s
2600 J/kg
2400 J/kg
2200 J/kg
2000 J/kg
1800 J/kg
1600 J/kg
1400 J/kg
1200 J/kg
1000 J/kg
800 J/kg
600 J/kg
400 J/kg
200 J/kg
70 dBZ
65 dBZ
60 dBZ
55 dBZ
50 dBZ
45 dBZ
40 dBZ
35 dBZ
30 dBZ
25 dBZ
20 dBZ
15 dBZ
10 dBZ
5 dBZ
-1 K
-2 K
-3 K
-4 K